Last reported at 2014-Apr-20 04:47 UTC.
Time now 2014-Apr-20 05:56 UTC

Location: N 38°00' W 001°02'.
View on Google Maps.

See reports from other nearby stations

Tides Stations Pressure Air Temp Water Temp Dewpoint Dewpoint depression Visibility Wind Speed Wind Dir Waves Ship positions

  
sailing weather and tide predictions

DW2959 Murcia ES weather

date/time (UTC)wind fromknots sea level pressurealtimeterstation pressurevisibilityair tempwater tempwave heightnotes
2014-Apr-20 04:47
2014-Apr-20 04:32
2014-Apr-20 04:17
2014-Apr-20 04:02
2014-Apr-20 03:47
2014-Apr-20 03:32
2014-Apr-20 03:16
2014-Apr-20 03:01
2014-Apr-20 02:46 257 16.7
2014-Apr-20 02:31 257 17.2
2014-Apr-20 02:16 257 17.8
2014-Apr-20 02:01 257 18.9
2014-Apr-20 01:46 257 19.4
2014-Apr-20 01:31 257 0 19.4
2014-Apr-20 01:16 257 19.4
2014-Apr-20 01:01 257 19.4
2014-Apr-20 00:46 257 0 19.4
2014-Apr-20 00:31 257 19.4
2014-Apr-20 00:16 256 0 20.0
2014-Apr-20 00:01 256 1 20.0
2014-Apr-19 23:46 276 1 20.0
2014-Apr-19 23:31 275 1 20.6
2014-Apr-19 23:16 261 1 20.6
2014-Apr-19 23:01 281 2 21.1
2014-Apr-19 22:46 306 3 21.1
2014-Apr-19 22:31 333 4 21.7
2014-Apr-19 22:16 267 4 21.1
2014-Apr-19 22:01 265 3 20.0
2014-Apr-19 21:46 235 1 20.6
2014-Apr-19 21:31 232 2 20.6
2014-Apr-19 21:16 223 3 20.0
2014-Apr-19 21:01 236 0 19.4
2014-Apr-19 20:46 236 1 20.0
2014-Apr-19 20:31 263 0 20.0
2014-Apr-19 20:16 265 3 20.0
2014-Apr-19 20:01 217 2 20.6
2014-Apr-19 19:46 217 2 20.6
2014-Apr-19 19:31 269 2 21.1
2014-Apr-19 19:16 320 4 22.2
2014-Apr-19 19:00 333 4 22.8
2014-Apr-19 18:45 214 23.9
2014-Apr-19 18:30 225 0 23.9
2014-Apr-19 18:15 225 23.9
2014-Apr-19 18:00 222 1 25.0
2014-Apr-19 17:45 117 25.0
2014-Apr-19 17:30 117 0 25.0
2014-Apr-19 17:15 028 1 25.0
2014-Apr-19 17:00 018 1 25.0
2014-Apr-19 16:45 009 25.6
2014-Apr-19 16:30 005 0 25.6
2014-Apr-19 16:15 027 1 25.6
2014-Apr-19 16:00 257 4 25.6
2014-Apr-19 15:45 186 1 26.7
2014-Apr-19 15:30 305 0 26.7
2014-Apr-19 15:15 022 1 26.7
2014-Apr-19 15:00 277 27.2
2014-Apr-19 14:45 176 3 27.2
2014-Apr-19 14:30 285 5 27.8
2014-Apr-19 14:15 173 6 28.3
2014-Apr-19 14:00 184 6 28.9
2014-Apr-19 13:45 126 2 30.0
2014-Apr-19 13:30 153 0 30.0
2014-Apr-19 13:15 124 4 29.4
2014-Apr-19 13:00 194 4 30.0
2014-Apr-19 12:45 168 5 30.0
2014-Apr-19 12:30 152 7 30.6
2014-Apr-19 12:15 151 5 30.6
2014-Apr-19 12:00 165 6 30.6
2014-Apr-19 11:45 162 4 30.6
2014-Apr-19 11:30 159 4 30.6
2014-Apr-19 11:14 206 5 30.0
2014-Apr-19 10:59 161 3 29.4
2014-Apr-19 10:44 284 1 28.9
2014-Apr-19 10:29 273 0 28.3
2014-Apr-19 10:14 263 1 27.8
2014-Apr-19 09:59 234 1 27.2
2014-Apr-19 09:44 268 3 26.7
2014-Apr-19 09:29 222 0 26.1
2014-Apr-19 09:14 217 1 25.6
2014-Apr-19 08:59 265 2 25.0
2014-Apr-19 08:44 253 2 24.4
2014-Apr-19 08:29 250 2 23.3
2014-Apr-19 08:14 229 1 22.8
2014-Apr-19 07:59 225 3 21.7
2014-Apr-19 07:44 239 3 21.7
2014-Apr-19 07:29 240 1 20.6
2014-Apr-19 07:14 245 2 19.4
2014-Apr-19 06:59 211 1 18.9
2014-Apr-19 06:44 259 2 18.9
2014-Apr-19 06:29 259 2 18.3
2014-Apr-19 06:14 258 1 18.3
2014-Apr-19 05:59
2014-Apr-19 05:44
2014-Apr-19 05:29
2014-Apr-19 05:14
2014-Apr-19 04:59
2014-Apr-19 04:44
2014-Apr-19 04:28
2014-Apr-19 04:13
2014-Apr-19 03:58
2014-Apr-19 03:43
2014-Apr-19 03:28
2014-Apr-19 03:13
2014-Apr-19 02:58 239 1 15.0
2014-Apr-19 02:43 261 15.6
2014-Apr-19 02:28 261 1 16.1
2014-Apr-19 02:13 261 1 16.7
2014-Apr-19 01:58 258 5 17.2
2014-Apr-19 01:43 257 5 17.2
2014-Apr-19 01:28 268 4 17.2
2014-Apr-19 01:13 237 3 17.8
2014-Apr-19 00:58 232 2 17.2
2014-Apr-19 00:43 228 2 17.2
2014-Apr-19 00:28 260 3 16.7
2014-Apr-19 00:13 267 4 15.6
2014-Apr-18 23:58 355 0 16.1
2014-Apr-18 23:43 355 16.1
2014-Apr-18 23:28 355 16.7
2014-Apr-18 23:13 355 16.7
2014-Apr-18 22:58 355 17.2
2014-Apr-18 22:43 355 17.2
2014-Apr-18 22:28 355 0 16.7
2014-Apr-18 22:13 355 1 16.7
2014-Apr-18 21:58 005 0 16.7
2014-Apr-18 21:42 043 0 17.2
2014-Apr-18 21:27 043 0 17.8
2014-Apr-18 21:12 050 18.3
2014-Apr-18 20:57 050 18.3
2014-Apr-18 20:42 050 2 18.9
2014-Apr-18 20:27 069 1 19.4
2014-Apr-18 20:12 067 1 20.0
2014-Apr-18 19:57 062 1 20.6
2014-Apr-18 19:42 055 1 21.1
2014-Apr-18 19:27 046 2 21.7
2014-Apr-18 19:12 060 3 22.2
2014-Apr-18 18:57 150 0 23.3
2014-Apr-18 18:42 164 23.9
2014-Apr-18 18:27 163 24.4
2014-Apr-18 18:13 163 24.4
2014-Apr-18 17:57 163 0 24.4
2014-Apr-18 17:42 163 1 25.0
2014-Apr-18 17:27 177 4 25.6
2014-Apr-18 17:12 153 5 25.6
2014-Apr-18 16:57 172 5 25.6
2014-Apr-18 16:42 164 6 25.6
2014-Apr-18 16:27 165 7 26.1
2014-Apr-18 16:12 165 9 25.6
2014-Apr-18 15:57 187 10 26.1
2014-Apr-18 15:42 163 10 26.1
2014-Apr-18 15:27 162 8 26.1
2014-Apr-18 15:11 169 10 26.1
2014-Apr-18 14:56 169 11 26.1
2014-Apr-18 14:41 173 9 26.7
2014-Apr-18 14:26 178 9 26.7
2014-Apr-18 14:11 182 7 27.2
2014-Apr-18 13:56 167 7 27.2
2014-Apr-18 13:41 211 10 26.7
2014-Apr-18 13:26 209 6 27.2
2014-Apr-18 13:11 145 6 27.2
2014-Apr-18 12:56 167 5 27.2
2014-Apr-18 12:41 138 6 26.1
2014-Apr-18 12:26 168 5 26.1
2014-Apr-18 12:11 215 2 26.1
2014-Apr-18 11:56 225 2 26.1
2014-Apr-18 11:41 088 1 25.6
2014-Apr-18 11:26 051 1 25.6
2014-Apr-18 11:11 068 1 25.0
2014-Apr-18 10:56 049 2 23.9
2014-Apr-18 10:41 051 0 23.9
2014-Apr-18 10:26 080 23.3
2014-Apr-18 10:11 011 0 22.8
2014-Apr-18 09:56 005 0 21.7
2014-Apr-18 09:40 355 0 21.1
2014-Apr-18 09:25 346 1 20.6
2014-Apr-18 09:10 304 1 19.4
2014-Apr-18 08:55 267 0 18.9
2014-Apr-18 08:40 268 0 18.3
2014-Apr-18 08:25 269 1 17.8
2014-Apr-18 08:10 267 1 17.2
2014-Apr-18 07:55 256 1 16.7
2014-Apr-18 07:40 229 1 16.1
2014-Apr-18 07:25 255 1 15.6
2014-Apr-18 07:10 242 2 15.0
2014-Apr-18 06:55 177 0 15.0
2014-Apr-18 06:40 175 14.4
2014-Apr-18 06:25 172 13.9
2014-Apr-18 06:10 172 13.3
2014-Apr-18 05:55
2014-Apr-18 05:40
2014-Apr-18 05:25
2014-Apr-18 05:10